TIME,DELAY(SENSOR),PRES,OXYGEN,RAWTEMP,T(OPTODE),TCPHASE,FLUOR,BETA(BETA700),BETA(BETA412),BETA(BETA440),CDOM,C(CSC),ED(ED412.40),ED(ED444.00),ED(ED489.70),ED(ED554.30),LU(LU411.80),LU(LU443.40),LU(LU489.60),LU(LU554.10),COMP,TILTX,TILTY,CHECK
1372305764,5807,825.7700195312500000,46.7385406494140600,664.7088012695312000,4.4728279113769530,54.0659294128418000,52,100,88,78,78,15486,2147756306,2147426185,2148010989,2147871076,2147642788,2147063533,2148260251,2147197531,1508,4,13,25336
1372309360,5809,905.0800170898438000,51.8463516235351560,671.1981811523438000,4.2586097717285160,53.4354400634765600,52,101,85,77,79,15487,2147755684,2147423515,2148009883,2147876818,2147641316,2147060141,2148262464,2147192978,518,4,13,61573
1372312960,5808,926.3300170898438000,53.3536300659179700,671.0087890625000000,4.2648677825927730,53.2263107299804700,53,96,87,78,78,15486,2147758564,2147428461,2148008320,2147875254,2147640685,2147061092,2148261577,2147198893,66,4,13,56011
1372316560,5808,950.5999755859375000,54.6979789733886700,673.5579223632812000,4.1805949211120605,53.0796089172363300,52,98,87,78,79,15487,2147754861,2147422939,2148011254,2147873581,2147639670,2147056128,2148259876,2147199250,3423,4,13,13970
1372320160,5810,962.0200195312500000,54.4856109619140600,673.7249755859375000,4.1750679016113280,53.1133804321289060,52,98,85,79,79,15486,2147757376,2147422372,2148008402,2147873682,2147640978,2147062829,2148258861,2147198052,3463,4,13,8010
1372323760,5810,954.8699951171875000,54.3288307189941400,674.0109252929688000,4.1656107902526855,53.1335105895996100,53,97,88,79,78,15488,2147757001,2147424713,2148011657,2147873024,2147639890,2147061110,2148260635,2147197101,3581,3,13,10197
1372327360,5806,987.9099731445312000,55.7131614685058600,676.7888793945312000,4.0736727714538570,52.9869194030761700,52,95,84,78,79,15408,2147755456,2147427702,2148007990,2147872621,2147641170,2147053357,2148264274,2147200420,144,4,13,5532
1372330960,5808,994.0499877929688000,55.5944900512695300,676.5717773437500000,4.0808582305908200,53.0028915405273440,52,98,82,78,79,15423,2147754386,2147426294,2148009307,2147872438,2147638793,2147058194,2148263469,2147200850,3519,3,13,55432
1372334560,5812,997.0999755859375000,55.5030403137207000,676.1433715820312000,4.0950407981872560,53.0098114013671900,51,97,86,79,79,15423,2147756187,2147424091,2148011355,2147877778,2147640493,2147060233,2148264804,2147199241,2,4,13,65293
1372338160,5808,995.4299926757812000,55.1764907836914060,676.3209228515625000,4.0891671180725100,53.0515708923339840,53,98,88,79,78,15423,2147756928,2147429165,2148011840,2147875209,2147637732,2147053924,2148267931,2147196937,49,4,13,4218
1372341760,5806,990.6699829101562000,55.3140983581543000,677.2178955078125000,4.0594668388366700,53.0478706359863300,52,97,84,78,80,15411,2147759250,2147426294,2148008484,2147876352,2147640896,2147056630,2148258742,2147197248,161,4,13,44520
1372345360,5811,984.7299804687500000,55.7527084350585940,678.7020874023438000,4.0103020668029785,53.0092697143554700,53,98,87,79,79,15420,2147756516,2147425453,2148010953,2147873362,2147642953,2147058276,2148260681,2147197330,396,4,13,64962
1372348960,5811,992.9799804687500000,55.9819107055664060,678.5222167968750000,4.0162639617919920,52.9766807556152340,52,97,85,79,80,15421,2147757997,2147425197,2148012699,2147874953,2147641435,2147057280,2148263926,2147199360,65,4,13,36746
1372352560,5808,994.0900268554688000,55.8954582214355500,678.7722167968750000,4.0079817771911620,52.9939498901367200,52,96,87,79,80,15411,2147758592,2147424146,2148009536,2147873088,2147643328,2147057773,2148263597,2147199917,3462,3,13,24238
1372356160,5808,995.7500000000000000,55.8476791381835940,678.6079711914062000,4.0134181976318360,52.9968605041503900,52,97,83,82,79,15416,2147754733,2147426203,2148010560,2147874166,2147641353,2147055177,2148261595,2147200347,403,3,13,2433
1372359760,5806,1001.9500122070312000,55.4002418518066400,677.5634765625000000,4.0480189323425290,53.0418891906738300,51,97,82,84,80,15422,2147756809,2147424201,2148011922,2147874697,2147640301,2147053540,2148266157,2147197065,3541,4,13,13196
1372363360,5805,998.0300292968750000,55.1347999572753900,677.4885253906250000,4.0505051612854000,53.0714912414550800,53,97,88,79,79,15409,2147756763,2147423908,2148010166,2147871140,2147641188,2147059584,2148263076,2147196352,248,4,13,19765
1372366960,5809,995.4600219726562000,55.4890098571777340,678.5737915039062000,4.0145530700683590,53.0442085266113300,52,97,90,79,79,15415,2147756982,2147425929,2148009837,2147874139,2147642889,2147060937,2148261284,2147199286,3195,3,13,12509
1372370560,5810,991.2800292968750000,55.3936691284179700,679.3778076171875000,3.9879109859466553,53.0639495849609400,52,98,82,78,79,15418,2147755163,2147426249,2148011062,2147872630,2147641920,2147059410,2148261677,2147198409,3047,4,13,40198
1372374160,5811,994.2700195312500000,55.6121406555175800,679.1118164062500000,3.9967288970947266,53.0302391052246100,53,97,85,77,79,15416,2147757878,2147426614,2148013796,2147873042,2147642230,2147060690,2148262427,2147199753,3,4,13,6648
1372377760,5807,993.1500244140625000,55.8592605590820300,679.1660156250000000,3.9949319362640380,53.0030784606933600,52,96,86,79,79,15413,2147759195,2147423707,2148010121,2147875483,2147644297,2147051236,2148261558,2147202075,3267,4,13,57133
1372381360,5808,1003.3099975585938000,55.5390090942382800,678.5737304687500000,4.0145568847656250,53.0330581665039060,52,98,86,80,77,15412,2147758921,2147426870,2148010386,2147872932,2147644854,2147061595,2148265280,2147197933,219,4,13,26733
1372384960,5807,1000.2800292968750000,55.5876083374023440,679.2045898437500000,3.9936521053314210,53.0382499694824200,52,98,86,78,80,15414,2147756077,2147425216,2148012525,2147874377,2147642806,2147053915,2148261229,2147198482,3377,4,13,32324
1372388560,5809,1000.2299804687500000,55.0135993957519500,678.5134277343750000,4.0165538787841800,53.1048507690429700,52,97,86,78,80,15412,2147757202,2147423131,2148009426,2147871835,2147642944,2147053540,2148259574,2147202633,191,4,13,26503
1372392160,5809,997.9600219726562000,55.2690086364746100,679.1802978515625000,3.9944570064544678,53.0769691467285160,52,95,85,78,78,15410,2147756672,2147426413,2148007689,2147872932,2147644077,2147054546,2148261357,2147196525,3554,4,13,55186
1372395760,5807,996.9299926757812000,55.0702400207519500,678.5822753906250000,4.0142707824707030,53.0967903137207000,52,97,86,78,79,15411,2147756406,2147423844,2148008960,2147875858,2147638902,2147058157,2148259666,2147200722,437,4,13,28909
1372399360,5807,995.7100219726562000,56.0933189392089840,679.9509887695312000,3.9689118862152100,52.9800491333007800,52,97,86,80,79,15412,2147754523,2147425170,2148012717,2147872914,2147642944,2147060324,2148258733,2147198244,3584,4,13,52673
1372402960,5809,999.9600219726562000,56.1802406311035160,679.7166137695312000,3.9766829013824463,52.9678001403808600,52,98,84,79,80,15409,2147757787,2147426669,2148011611,2147872758,2147641078,2147058614,2148263881,2147198390,389,4,13,18624
1372406560,5808,999.1500244140625000,55.5503082275390600,679.1577758789062000,3.9952030181884766,53.0423088073730500,52,98,87,79,79,15404,2147756598,2147424621,2148011318,2147878244,2147642331,2147055872,2148260068,2147197796,349,4,13,46253
1372410160,5808,1008.1799926757812000,55.7052001953125000,678.2078247070312000,4.0266780853271480,53.0066719055175800,53,104,86,77,79,15404,2147757421,2147427611,2148012361,2147877769,2147641417,2147059099,2148265307,2147198217,3294,3,13,5176
1372413760,5806,1006.3599853515625000,54.4931793212890600,677.6386718750000000,4.0455298423767090,53.1584587097168000,53,95,83,78,79,15407,2147755602,2147424118,2148010688,2147874651,2147642413,2147061421,2148261147,2147193572,350,4,13,56577
1372417360,5809,1004.2399902343750000,54.7222900390625000,677.7714233398438000,4.0411357879638670,53.1293601989746100,53,96,85,77,79,15407,2147758729,2147425499,2148014198,2147874660,2147643648,2147059392,2148261677,2147197376,404,4,13,62113
1372420960,5808,1005.7500000000000000,54.9857788085937500,675.9846801757812000,4.1002979278564450,53.0733299255371100,52,97,85,79,79,15405,2147752155,2147424237,2148008310,2147871826,2147641508,2147060900,2148257280,2147200329,92,4,13,41992
1372424560,5808,1004.7700195312500000,55.1768493652343750,676.5239868164062000,4.0824408531188965,53.0547218322753900,52,98,85,77,80,15405,2147758208,2147424969,2148013266,2147873691,2147644297,2147059126,2148259437,2147193307,3569,3,13,5557
1372428160,5810,1007.6500244140625000,54.7110710144043000,677.5222778320312000,4.0493869781494140,53.1285896301269500,52,95,86,79,78,15407,2147755044,2147423488,2148011181,2147873033,2147641152,2147063954,2148260854,2147195785,361,4,13,55604
1372431760,5811,1003.7800292968750000,54.9384193420410160,678.4395141601562000,4.0190048217773440,53.1124992370605500,53,97,87,78,79,15404,2147757037,2147424411,2148012150,2147874349,2147642075,2147065362,2148257590,2147196781,566,4,13,15917
1372435360,5812,1004.3099975585938000,54.6663513183593750,678.4765014648438000,4.0177779197692870,53.1497306823730500,53,96,90,78,78,15405,2147758052,2147430537,2148011465,2147873819,2147641664,2147053686,2148259712,2147197458,82,4,13,55165
1372438960,5810,996.4699707031250000,55.2009696960449200,679.6516113281250000,3.9788379669189453,53.0926704406738300,52,97,86,80,80,15406,2147759862,2147424448,2148011766,2147871972,2147642962,2147056749,2148265874,2147198363,290,4,13,45699
1372442560,5758,985.2399902343750000,55.9955902099609400,681.2619018554688000,3.9254488945007324,53.0133514404296900,52,97,86,79,80,15403,2147756306,2147426221,2148011328,2147875739,2147644452,2147055917,2148265947,2147196114,898,4,13,43387
1372446160,5806,992.1199951171875000,56.3079681396484400,681.4826049804688000,3.9181311130523680,52.9722404479980500,52,99,87,78,78,15403,2147755446,2147425197,2148014345,2147876233,2147641417,2147054720,2148260233,2147197595,255,4,13,8196
1372449760,5808,1007.6699829101562000,55.9234390258789060,679.8524780273438000,3.9721789360046387,53.0040283203125000,53,98,86,78,79,15406,2147753773,2147426121,2148011081,2147874148,2147642441,2147059593,2148260726,2147197174,602,4,13,14329
1372450256,5808,1011.4699707031250000,56.0670585632324200,679.6467285156250000,3.9790000915527344,52.9782981872558600,52,97,83,79,80,15470,2147755364,2147426816,2148011556,2147874934,2147640082,2147057097,2148258587,2147196571,2,4,13,32494
